Location: Bethera
(33.2010°N, 79.7880°W)
Time: 11:55:12
(UTC-04:00)

Amateur Radio Satellites - All Passes

Search period start: 28 June 2017 11:25
Search period end: 29 June 2017 11:25
Location: Bethera, 33.2010°N, 79.7880°W

Satellite Date Start Highest point End Downlink Frequencies (MHz)
Time Altitude Azimuth
EO-79 28 Jun 11:30:56 11:33:42 17° 69° (ENE) 11:36:29 145.935-145.965
PCSat 28 Jun 11:32:00 11:37:15 53° 111° (ESE) 11:42:31 145.827
TIGRISAT 28 Jun 11:38:21 11:41:47 21° 265° (W) 11:45:18 435.000
DUCHIFAT 1 28 Jun 11:41:02 11:43:52 18° 69° (ENE) 11:46:44 145.980
JUGNU 28 Jun 11:43:11 11:46:26 15° 166° (SSE) 11:49:42 437.505
NANOSAT C BR1 28 Jun 11:50:32 11:54:03 26° 71° (ENE) 11:57:36 145.865
YUBILEINY 28 Jun 11:52:10 11:56:22 14° 281° (WNW) 12:00:33 435.215
POLYITAN 1 28 Jun 12:30:25 12:34:41 87° 258° (WSW) 12:39:00 437.675
BUGSAT 1 28 Jun 12:37:52 12:41:07 23° 70° (ENE) 12:44:24 437.445
QB50P2 28 Jun 12:41:34 12:45:45 57° 260° (W) 12:49:58 145.880/145.840
AIST 2D 28 Jun 12:43:47 12:46:25 20° 264° (W) 12:49:04 435.315
LO-87 28 Jun 12:50:29 12:53:51 36° 286° (WNW) 12:57:12 145.935 - 145.965
SPROUT 28 Jun 12:50:41 12:53:49 20° 95° (E) 12:56:56 437.525
VELOX 1 28 Jun 12:53:41 12:56:53 19° 95° (E) 13:00:05 145.980
ESTCUBE 1 28 Jun 13:05:07 13:09:32 59° 285° (WNW) 13:13:56 437.505/2401.250
EO-79 28 Jun 13:05:22 13:09:09 32° 262° (W) 13:13:00 145.935-145.965
DUCHIFAT 1 28 Jun 13:15:33 13:19:15 30° 262° (W) 13:23:01 145.980
PCSat 28 Jun 13:17:10 13:20:56 19° 307° (NW) 13:24:42 145.827
Gurwin Techsat 1B 28 Jun 13:25:32 13:29:20 20° 67° (ENE) 13:33:08 435.225
NANOSAT C BR1 28 Jun 13:26:32 13:29:41 20° 265° (W) 13:32:51 145.865
JUGNU 28 Jun 13:30:21 13:34:47 22° 176° (S) 13:39:14 437.505
SRMSAT 28 Jun 13:36:04 13:37:20 11° 163° (SSE) 13:38:37 437.500
SO-50 28 Jun 13:36:07 13:40:31 49° 115° (ESE) 13:44:54 436.795
50 SAT 28 Jun 13:44:03 13:47:07 30° 98° (E) 13:50:10 437.505
Oscar 19 28 Jun 13:44:30 13:49:28 51° 73° (ENE) 13:54:27 437.125/150
BUGSAT 1 28 Jun 14:13:04 14:16:19 22° 264° (W) 14:19:38 437.445
ISS 28 Jun 14:14:06 14:16:20 17° 33° (NNE) 14:18:33 437.550
SPROUT 28 Jun 14:26:01 14:29:40 27° 288° (WNW) 14:33:17 437.525
VELOX 1 28 Jun 14:29:26 14:33:18 30° 288° (WNW) 14:37:09 145.980
DX 1 28 Jun 14:37:57 14:42:20 80° 284° (WNW) 14:46:42 434.975-435.025
UKube-1 28 Jun 14:48:21 14:52:41 88° 99° (E) 14:57:01 .
Tancredo 1 28 Jun 14:51:41 14:54:43 88° 229° (SW) 14:57:44 437.200
Gurwin Techsat 1B 28 Jun 15:03:56 15:08:55 42° 261° (W) 15:13:56 435.225
AO-7 28 Jun 15:09:13 15:16:47 41° 64° (ENE) 15:24:22 .
SO-50 28 Jun 15:18:25 15:21:12 16° 310° (NW) 15:24:00 436.795
50 SAT 28 Jun 15:18:43 15:19:33 11° 291° (WNW) 15:20:23 437.505
JUGNU 28 Jun 15:18:54 15:23:11 20° 187° (S) 15:27:29 437.505
SRMSAT 28 Jun 15:21:41 15:25:49 19° 172° (S) 15:29:57 437.500
Oscar 19 28 Jun 15:26:11 15:29:00 15° 267° (W) 15:31:50 437.125/150
ITUPSAT 1 28 Jun 15:46:18 15:50:28 29° 97° (E) 15:54:37 437.325
ISS 28 Jun 15:49:49 15:52:57 43° 228° (SW) 15:56:05 437.550
BEESAT 28 Jun 15:53:50 15:58:16 37° 99° (E) 16:02:38 436.000
ITAMSAT 1 28 Jun 16:07:59 16:13:11 84° 257° (WSW) 16:18:26 435.822/435.867
MOZHAYETS 4 28 Jun 16:32:25 16:36:59 66° 101° (E) 16:41:30
AO-7 28 Jun 17:01:49 17:09:24 39° 260° (W) 17:17:05 .
JUGNU 28 Jun 17:09:10 17:11:32 12° 196° (SSW) 17:13:55 437.505
SRMSAT 28 Jun 17:09:52 17:14:22 22° 182° (S) 17:18:52 437.500
CUBESAT XI-V 28 Jun 17:22:27 17:26:45 39° 98° (E) 17:31:03 437.345
ITUPSAT 1 28 Jun 17:24:22 17:28:06 23° 291° (WNW) 17:31:48 437.325
BEESAT 28 Jun 17:32:25 17:35:42 19° 292° (WNW) 17:38:58 436.000
CUTE-I 28 Jun 17:38:14 17:41:04 15° 64° (ENE) 17:43:53 437.470
KKS-1 28 Jun 17:41:50 17:46:04 40° 99° (E) 17:50:16 437.445
DOVE 4 28 Jun 17:42:28 17:46:07 31° 72° (ENE) 17:49:55 437.250
XW-2F 28 Jun 18:01:34 18:04:20 19° 71° (ENE) 18:07:07 145.980 - 146.000
STARS 28 Jun 18:02:18 18:06:04 27° 97° (E) 18:09:49 437.465
XW-2D 28 Jun 18:07:33 18:10:44 25° 73° (ENE) 18:13:54 145.860 - 145.880
XW-2B 28 Jun 18:16:24 18:19:48 31° 74° (ENE) 18:23:13 145.730 - 145.750
LilacSat-2 28 Jun 18:19:38 18:23:12 38° 74° (ENE) 18:26:48 437.200
XW-2C 28 Jun 18:31:41 18:35:26 52° 76° (ENE) 18:39:10 145.795 - 145.815
KAITUO 1B 28 Jun 18:37:20 18:40:57 46° 75° (ENE) 18:44:35 145.475/437.950
CUTE 1.7 + AOD 2 28 Jun 18:48:50 18:50:09 11° 67° (ENE) 18:51:26 437.475
SRMSAT 28 Jun 18:59:15 19:02:54 17° 192° (SSW) 19:06:33 437.500
CUBESAT XI-V 28 Jun 19:00:55 19:03:46 16° 292° (WNW) 19:06:37 437.345
NUDT-PHONESAT 28 Jun 19:07:53 19:11:36 64° 259° (WSW) 19:15:21 437.300
AO-85 28 Jun 19:12:42 19:15:33 18° 111° (ESE) 19:18:19 145.980
CUTE-I 28 Jun 19:15:17 19:20:32 60° 259° (W) 19:25:49 437.470
RS-15 28 Jun 19:17:44 19:26:41 25° 101° (E) 19:35:46 29.354- 29.394
HO-68 28 Jun 19:19:26 19:26:12 46° 69° (ENE) 19:32:59 435.675
KKS-1 28 Jun 19:19:37 19:22:14 15° 293° (WNW) 19:24:50 437.445
DOVE 4 28 Jun 19:21:24 19:23:54 16° 267° (W) 19:26:28 437.250
NO-84 28 Jun 19:33:21 19:34:16 11° 118° (ESE) 19:35:14 435.350 FM
CUBEBUG 2 28 Jun 19:33:33 19:37:00 21° 69° (ENE) 19:40:32 437.445
XW-2F 28 Jun 19:35:20 19:38:18 21° 264° (W) 19:41:16 145.980 - 146.000
STARS 28 Jun 19:38:49 19:42:12 22° 291° (WNW) 19:45:35 437.465
XW-2D 28 Jun 19:42:23 19:44:52 16° 265° (W) 19:47:20 145.860 - 145.880
XW-2B 28 Jun 19:52:11 19:54:01 13° 266° (W) 19:55:52 145.730 - 145.750
LilacSat-2 28 Jun 19:56:31 19:57:36 11° 267° (W) 19:58:39 437.200
SEEDS 28 Jun 19:57:12 20:01:13 47° 75° (ENE) 20:05:15 437.485
UWE-3 28 Jun 19:59:36 20:03:17 24° 70° (ENE) 20:07:01 435.000/436.395/437.385
CUTE 1.7 + AOD 2 28 Jun 20:21:23 20:25:29 49° 261° (W) 20:29:36 437.475
BEESAT 3 28 Jun 20:21:42 20:25:37 70° 116° (ESE) 20:29:36 437.485
PCSat 28 Jun 20:25:01 20:28:48 19° 53° (NE) 20:32:33 145.827
XW-2A 28 Jun 20:36:36 20:39:45 34° 262° (W) 20:42:56 145.665 - 145.685
AAUSAT CUBESAT 2 28 Jun 20:37:27 20:41:32 65° 76° (ENE) 20:45:36 437.432
AO-73 28 Jun 20:44:52 20:49:03 38° 73° (ENE) 20:53:16 145.935
AO-85 28 Jun 20:52:09 20:55:44 28° 304° (WNW) 20:59:12 145.980
YUBILEINY 28 Jun 20:54:13 21:00:01 20° 81° (E) 21:05:48 435.215
STRAND 1 28 Jun 20:57:36 21:02:45 74° 285° (WNW) 21:07:50 437.568
NO-84 28 Jun 21:07:36 21:11:14 56° 314° (NW) 21:15:12 435.350 FM
Oscar 11 28 Jun 21:07:46 21:11:58 52° 75° (ENE) 21:16:12 .
HO-68 28 Jun 21:08:02 21:14:00 28° 263° (W) 21:20:01 435.675
CUBEBUG 2 28 Jun 21:09:20 21:13:22 31° 264° (W) 21:17:31 437.445
ZACube-1 28 Jun 21:21:41 21:26:12 70° 258° (WSW) 21:30:47 437.345
RS-15 28 Jun 21:25:44 21:37:49 78° 299° (WNW) 21:50:16 29.354- 29.394
BEESAT 2 28 Jun 21:28:53 21:32:46 57° 300° (WNW) 21:36:45 435.950
DELFI C3 28 Jun 21:32:44 21:35:44 22° 71° (ENE) 21:38:45 145.870
UWE-3 28 Jun 21:35:42 21:39:33 26° 264° (W) 21:43:29 435.000/436.395/437.385
SEEDS 28 Jun 21:36:17 21:37:05 10° 268° (W) 21:37:55 437.485
EO-88 28 Jun 21:39:15 21:41:30 16° 70° (ENE) 21:43:46 145.990 - 145.960
O/OREOS (USA 219) 28 Jun 21:42:44 21:47:12 58° 290° (WNW) 21:51:41 437.305
PCSat 28 Jun 22:07:13 22:12:29 53° 249° (WSW) 22:17:43 145.827
SO-50 28 Jun 22:12:23 22:15:06 15° 50° (NE) 22:17:50 436.795
FO-29 28 Jun 22:16:51 22:24:00 37° 96° (E) 22:30:49 435.910
PRISM 28 Jun 22:20:35 22:23:04 16° 95° (E) 22:25:34 437.425
AO-73 28 Jun 22:22:32 22:25:21 16° 266° (W) 22:28:12 145.935
UNISAT 6 28 Jun 22:39:54 22:43:57 30° 97° (E) 22:47:54 437.425
YUBILEINY 28 Jun 22:47:04 22:55:48 71° 277° (W) 23:04:40 435.215
Oscar 11 28 Jun 22:47:46 22:48:20 10° 268° (W) 22:48:54 .
DELFI C3 28 Jun 23:07:27 23:10:23 20° 264° (W) 23:13:19 145.870
EO-88 28 Jun 23:11:55 23:14:56 24° 263° (W) 23:17:59 145.990 - 145.960
M-CUBED/EXP-1 PRIME 28 Jun 23:13:40 23:17:35 75° 289° (WNW) 23:21:48 437.505
LO-87 28 Jun 23:22:01 23:25:21 39° 75° (ENE) 23:28:42 145.935 - 145.965
TIGRISAT 28 Jun 23:32:48 23:37:24 69° 283° (WNW) 23:41:51 435.000
RS-15 28 Jun 23:43:31 23:52:40 23° 324° (NW) 00:01:57 29.354- 29.394
VELOX 1 28 Jun 23:49:18 23:50:05 10° 65° (ENE) 23:50:52 145.980
SO-50 28 Jun 23:51:25 23:55:49 51° 245° (WSW) 00:00:14 436.795
PRISM 28 Jun 23:54:42 23:58:21 31° 288° (WNW) 00:02:01 437.425
ESTCUBE 1 28 Jun 23:59:56 00:04:25 73° 75° (ENE) 00:08:54 437.505/2401.250
FO-29 29 Jun 00:01:39 00:08:52 41° 291° (WNW) 00:15:52 435.910
AIST 2D 29 Jun 00:12:02 00:15:17 36° 98° (E) 00:18:29 435.315
UNISAT 6 29 Jun 00:17:00 00:20:24 21° 291° (WNW) 00:23:44 437.425
POLYITAN 1 29 Jun 00:20:13 00:23:25 20° 95° (E) 00:26:36 437.675
QB50P2 29 Jun 00:30:47 00:34:35 30° 98° (E) 00:38:19 145.880/145.840
YUBILEINY 29 Jun 00:52:44 00:54:11 10° 297° (WNW) 00:55:38 435.215
EO-79 29 Jun 00:53:36 00:57:48 54° 100° (E) 01:01:56 145.935-145.965
DUCHIFAT 1 29 Jun 01:03:02 01:07:12 55° 101° (E) 01:11:19 145.980
NANOSAT C BR1 29 Jun 01:13:35 01:17:51 87° 97° (E) 01:22:05 145.865
SPROUT 29 Jun 01:14:06 01:18:19 64° 259° (WSW) 01:22:35 437.525
VELOX 1 29 Jun 01:21:41 01:25:58 57° 259° (W) 01:30:18 145.980
DX 1 29 Jun 01:29:04 01:33:13 49° 74° (ENE) 01:37:24 434.975-435.025
UKube-1 29 Jun 01:38:30 01:42:31 40° 73° (ENE) 01:46:33 .
50 SAT 29 Jun 01:43:45 01:47:04 59° 260° (W) 01:50:24 437.505
POLYITAN 1 29 Jun 01:55:35 01:59:07 26° 289° (WNW) 02:02:37 437.675
BUGSAT 1 29 Jun 01:57:47 02:02:02 70° 102° (ESE) 02:06:12 437.445
Oscar 19 29 Jun 02:00:49 02:05:01 25° 97° (E) 02:09:11 437.125/150
QB50P2 29 Jun 02:07:14 02:10:05 18° 291° (WNW) 02:12:56 145.880/145.840
RS-15 29 Jun 02:09:04 02:12:20 11° 1° (N) 02:15:34 29.354- 29.394
EO-79 29 Jun 02:32:13 02:33:01 10° 294° (WNW) 02:33:49 145.935-145.965
DUCHIFAT 1 29 Jun 02:42:01 02:42:19 10° 294° (WNW) 02:42:37 145.980
ITUPSAT 1 29 Jun 02:49:15 02:52:57 22° 69° (ENE) 02:56:40 437.325
BEESAT 29 Jun 02:56:16 03:00:16 27° 70° (ENE) 03:04:17 436.000
DX 1 29 Jun 03:08:29 03:09:36 11° 267° (W) 03:10:44 434.975-435.025
UKube-1 29 Jun 03:16:38 03:18:40 13° 266° (W) 03:20:41 .
AO-7 29 Jun 03:17:50 03:22:06 15° 93° (E) 03:26:21 .
Gurwin Techsat 1B 29 Jun 03:24:02 03:29:22 75° 285° (WNW) 03:34:40 435.225
MOZHAYETS 4 29 Jun 03:29:56 03:34:13 38° 73° (ENE) 03:38:30
Oscar 19 29 Jun 03:39:49 03:44:15 30° 290° (WNW) 03:48:40 437.125/150
NO-84 29 Jun 03:45:15 03:48:23 19° 36° (NE) 03:51:29 435.350 FM
CUBESAT XI-V 29 Jun 04:21:56 04:25:38 24° 70° (ENE) 04:29:20 437.345
RS-15 29 Jun 04:22:22 04:31:44 25° 37° (NE) 04:40:45 29.354- 29.394
ITAMSAT 1 29 Jun 04:25:13 04:30:17 48° 100° (E) 04:35:19 435.822/435.867
ITUPSAT 1 29 Jun 04:26:19 04:30:33 31° 262° (W) 04:34:49 437.325
BEESAT 29 Jun 04:34:01 04:37:55 25° 263° (W) 04:41:52 436.000
KKS-1 29 Jun 04:36:13 04:39:39 22° 69° (ENE) 04:43:06 437.445
BEESAT 3 29 Jun 04:44:10 04:45:45 12° 49° (NE) 04:47:18 437.485
STARS 29 Jun 04:55:54 04:58:22 15° 67° (ENE) 05:00:49 437.465
AO-7 29 Jun 05:07:13 05:15:38 89° 290° (WNW) 05:24:01 .
MOZHAYETS 4 29 Jun 05:08:31 05:11:26 16° 266° (W) 05:14:22
NO-84 29 Jun 05:22:00 05:26:18 59° 233° (SW) 05:30:26 435.350 FM
AO-85 29 Jun 05:25:50 05:30:01 62° 61° (ENE) 05:34:28 145.980
Tancredo 1 29 Jun 05:44:49 05:46:35 15° 127° (SE) 05:48:22 437.200
DOVE 4 29 Jun 05:45:32 05:48:30 15° 93° (E) 05:51:32 437.250
BEESAT 2 29 Jun 05:50:53 05:54:04 22° 54° (NE) 05:57:11 435.950
CUBESAT XI-V 29 Jun 05:58:59 06:02:51 26° 264° (W) 06:06:43 437.345
ITAMSAT 1 29 Jun 06:05:58 06:09:17 17° 295° (WNW) 06:12:37 435.822/435.867
KKS-1 29 Jun 06:12:20 06:16:02 26° 263° (W) 06:19:45 437.445
BEESAT 3 29 Jun 06:19:45 06:23:37 51° 246° (WSW) 06:27:25 437.485
O/OREOS (USA 219) 29 Jun 06:20:46 06:21:33 10° 58° (ENE) 06:22:19 437.305
STARS 29 Jun 06:30:13 06:34:18 40° 261° (W) 06:38:27 437.465
RS-15 29 Jun 06:34:07 06:46:16 84° 62° (ENE) 06:57:42 29.354- 29.394
STRAND 1 29 Jun 06:35:14 06:35:42 10° 63° (ENE) 06:36:11 437.568
NUDT-PHONESAT 29 Jun 06:43:35 06:45:46 15° 94° (E) 06:47:56 437.300
ISS 29 Jun 06:50:17 06:53:20 39° 132° (SE) 06:56:25 437.550
AO-7 29 Jun 07:02:19 07:07:15 17° 305° (NW) 07:12:10 .
XW-2F 29 Jun 07:10:38 07:14:15 48° 99° (E) 07:17:51 145.980 - 146.000
XW-2D 29 Jun 07:17:27 07:21:11 68° 100° (E) 07:24:53 145.860 - 145.880
Tancredo 1 29 Jun 07:19:12 07:21:55 31° 321° (NW) 07:24:40 437.200
DOVE 4 29 Jun 07:21:25 07:26:19 51° 285° (WNW) 07:31:23 437.250
XW-2B 29 Jun 07:26:33 07:30:19 88° 100° (E) 07:34:03 145.730 - 145.750
BEESAT 2 29 Jun 07:28:22 07:31:44 25° 249° (WSW) 07:35:03 435.950
LilacSat-2 29 Jun 07:30:44 07:34:30 75° 283° (WNW) 07:38:14 437.200
CUTE-I 29 Jun 07:36:28 07:41:52 79° 103° (ESE) 07:47:14 437.470
XW-2C 29 Jun 07:42:20 07:46:00 53° 284° (WNW) 07:49:38 145.795 - 145.815
KAITUO 1B 29 Jun 07:46:16 07:49:56 64° 284° (WNW) 07:53:34 145.475/437.950
SEEDS 29 Jun 07:47:45 07:48:34 10° 92° (E) 07:49:23 437.485
O/OREOS (USA 219) 29 Jun 07:56:56 08:01:21 62° 253° (WSW) 08:05:44 437.305
XW-2A 29 Jun 08:03:06 08:05:20 16° 95° (E) 08:07:32 145.665 - 145.685
STRAND 1 29 Jun 08:09:00 08:14:08 80° 257° (WSW) 08:19:18 437.568
CUTE 1.7 + AOD 2 29 Jun 08:10:22 08:14:15 36° 98° (E) 08:18:06 437.475
NUDT-PHONESAT 29 Jun 08:16:36 08:19:37 24° 288° (WNW) 08:22:38 437.300
AAUSAT CUBESAT 2 29 Jun 08:25:12 08:27:17 14° 94° (E) 08:29:22 437.432
ISS 29 Jun 08:27:40 08:29:56 17° 327° (NNW) 08:32:13 437.550
HO-68 29 Jun 08:38:48 08:45:58 72° 104° (ESE) 08:53:05 435.675
RS-15 29 Jun 08:49:14 08:57:04 21° 260° (W) 09:04:42 29.354- 29.394
Oscar 11 29 Jun 09:00:51 09:02:53 13° 93° (E) 09:04:55 .
YUBILEINY 29 Jun 09:02:46 09:11:14 48° 78° (ENE) 09:19:35 435.215
CUBEBUG 2 29 Jun 09:03:48 09:08:27 80° 102° (ESE) 09:12:56 437.445
ZACube-1 29 Jun 09:14:45 09:18:37 30° 97° (E) 09:22:23 437.345
CUTE-I 29 Jun 09:19:38 09:21:10 11° 297° (WNW) 09:22:42 437.470
SEEDS 29 Jun 09:20:28 09:24:27 46° 285° (WNW) 09:28:25 437.485
UWE-3 29 Jun 09:28:48 09:33:20 89° 111° (ESE) 09:37:43 435.000/436.395/437.385
UNISAT 6 29 Jun 09:35:10 09:38:10 17° 68° (ENE) 09:41:12 437.425
XW-2A 29 Jun 09:35:32 09:37:56 18° 288° (WNW) 09:40:20 145.665 - 145.685
CUTE 1.7 + AOD 2 29 Jun 09:47:24 09:49:43 15° 291° (WNW) 09:52:02 437.475
M-CUBED/EXP-1 PRIME 29 Jun 09:56:24 09:59:38 60° 72° (ENE) 10:02:51 437.505
AAUSAT CUBESAT 2 29 Jun 09:59:03 10:02:49 35° 286° (WNW) 10:06:34 437.432
FO-29 29 Jun 10:08:09 10:14:07 63° 73° (ENE) 10:20:57 435.910
AO-73 29 Jun 10:12:56 10:17:13 56° 285° (WNW) 10:21:23 145.935
TIGRISAT 29 Jun 10:26:30 10:31:02 60° 75° (ENE) 10:35:40 435.000
HO-68 29 Jun 10:28:18 10:32:55 19° 299° (WNW) 10:37:33 435.675
Oscar 11 29 Jun 10:35:07 10:39:09 40° 286° (WNW) 10:43:09 .
PRISM 29 Jun 10:39:00 10:43:02 84° 258° (WSW) 10:47:06 437.425
EO-88 29 Jun 10:44:12 10:47:32 34° 98° (E) 10:50:51 145.990 - 145.960
DELFI C3 29 Jun 10:47:14 10:51:09 64° 100° (E) 10:55:04 145.870
ZACube-1 29 Jun 10:51:36 10:54:37 18° 291° (WNW) 10:57:35 437.345
YUBILEINY 29 Jun 11:00:13 11:07:34 31° 275° (W) 11:14:54 435.215
PCSat 29 Jun 11:01:32 11:06:27 37° 109° (ESE) 11:11:24 145.827
UNISAT 6 29 Jun 11:10:13 11:14:29 38° 262° (W) 11:18:52 437.425
QB50P2 29 Jun 11:20:31 11:22:45 14° 68° (ENE) 11:25:01 145.880/145.840
